Flag for U.S.A. Weather past 2 weeks in Glennallen, Alaska, U.S.A.

Now
12 °F

Sunny.


Feels Like: 12 °F
Forecast: -6 / 11 °F
Wind: No wind

Location: Gulkana Airport

Current Time: Mar 2, 2015 at 12:26:29 PM

Latest Report: Mar 2, 2015 at 11:53 AM


Visibility: 10 mi

Pressure: 30.47 "Hg

Humidity: 80%

Dew point: 7 °F

Location of GlennallenLocation

Historic Weather in Glennallen — Graph

°F

Glennallen temperature yesterday

Maximum temperature yesterday: 26 °F (at 4:53 PM)
Minimum temperature yesterday: 2 °F (at 5:53 AM)
Average temperature yesterday: 14 °F

Past Weeks' High & Low Weather Summary

 TemperatureHumidityPressure
High40 °F (Feb 16, 7:53 PM)96% (Feb 21, 10:53 PM)30.73 "Hg (Feb 21, 10:53 PM)
Low-4 °F (Feb 27, 7:53 AM)45% (Feb 17, 2:53 PM)29.75 "Hg (Feb 16, 7:53 PM)
Average22 °F80%30.29 "Hg
* Reported Feb 15 10:53 AM — Mar 2 10:53 AM, Glennallen, Weather by CustomWeather, © 2015

Note: Actual official high and low records may vary slightly from our data, if they occured in-between our weather recording intervals... More about our weather records

Advertising

Glennallen weather history for previous 24 hours

 ConditionsComfort  
Time TempWeatherWind HumidityBarometerVisibility
10:53 AM
Mon, Mar 2
9 °FSunny.No wind84%30.49 "Hg10 mi
9:53 AM5 °FSunny.No wind80%30.51 "Hg10 mi
8:53 AM2 °FSunny.No wind80%30.54 "Hg10 mi
7:53 AM0 °FSunny.No wind79%30.55 "Hg10 mi
6:53 AM2 °FClear.No wind80%30.55 "Hg10 mi
5:53 AM2 °FClear.No wind80%30.57 "Hg10 mi
4:53 AM4 °FClear.No wind84%30.57 "Hg10 mi
3:53 AM8 °FClear.3 mph76%30.58 "Hg10 mi
2:53 AM10 °FClear.3 mph80%30.58 "Hg10 mi
1:53 AM11 °FClear.9 mph81%30.59 "Hg10 mi
12:53 AM11 °FClear.6 mph81%30.60 "Hg10 mi
11:53 PM
Sun, Mar 1
12 °FClear.8 mph84%30.62 "Hg10 mi
10:53 PM14 °FClear.5 mph84%30.63 "Hg10 mi
9:53 PM12 °FClear.7 mph84%30.65 "Hg10 mi
8:53 PM8 °FClear.5 mph83%30.69 "Hg10 mi
7:53 PM12 °FClear.5 mph88%30.68 "Hg10 mi
6:53 PM15 °FClear.3 mph80%30.68 "Hg10 mi
5:53 PM22 °FSunny.3 mph75%30.69 "Hg10 mi
4:53 PM26 °FSunny.3 mph66%30.69 "Hg10 mi
3:53 PM25 °FSunny.3 mph69%30.71 "Hg10 mi
2:53 PM24 °FSunny.No wind71%30.71 "Hg10 mi
1:53 PM24 °FSunny.3 mph68%30.71 "Hg10 mi
12:53 PM21 °FSunny.3 mph71%30.71 "Hg10 mi
Weather by CustomWeather, © 2015

See weather overviewHow to use our weather pages